Weather History for Comanche, TX

Change the Weather History Date:

Monday, October 7, 2013

  Actual Average (KSEP) Record (KSEP)
Temperature  
Mean Temperature 65 °F -  
Max Temperature 82 °F 78 °F 98 °F (1979)
Min Temperature 49 °F 54 °F 38 °F (1952)
Growing Degree Days 15 (Base 50)    
Moisture  
Dew Point 37 °F    
Average Humidity 37    
Maximum Humidity 65    
Minimum Humidity 18    
Precipitation  
Precipitation 0.00 in - - ()
Sea Level Pressure  
Sea Level Pressure 30.13 in    
Wind  
Wind Speed 3 mph (SE)    
Max Wind Speed 8 mph    
Max Gust Speed -    
Visibility 10 miles    
Events      
Averages and records for this station are not official NWS values.
T = Trace of Precipitation, MM = Missing Value Source: NWS Daily Summary

Daily Weather History Graph

Daily Weather History Graph

Search for Another Location

Airport:

Trip Planner

Search our weather history database for the weather conditions in past years. The results will help you decide how hot, cold, wet, or windy it might be!

Date:

Astronomy

Oct. 07, 2013 Rise Set
Actual Time 7:32 AM CDT 7:11 PM CDT
Civil Twilight 7:07 AM CDT 7:35 PM CDT
Nautical Twilight 6:39 AM CDT 8:03 PM CDT
Astronomical Twilight 6:11 AM CDT 8:32 PM CDT
Moon 10:12 AM CDT (10/7) 9:09 PM CDT (10/7)
Length of Visible Light 12h 27m
Length of Day
11h 38m
Waxing Crescent, 9% of the Moon is Illuminated
Oct 7
Waxing Crescent
Oct 11
First Quarter
Oct 18
Full
Oct 26
Last Quarter
Nov 3
New

Hourly Weather History & Observations

Time (CDT) Temp. Dew Point Humidity Pressure Visibility Wind Dir Wind Speed Gust Speed Precip Events Conditions
12:15 AM 60.8 °F 30.2 °F 31% 30.14 in 10.0 mi WSW 5.8 mph - N/A   Clear
12:35 AM 57.9 °F 31.5 °F 37% 30.14 in 10.0 mi SW 4.6 mph - N/A   Clear
12:55 AM 57.4 °F 32.4 °F 39% 30.13 in 10.0 mi SW 5.8 mph - N/A   Clear
1:15 AM 58.3 °F 32.0 °F 37% 30.13 in 10.0 mi WSW 4.6 mph - N/A   Clear
1:35 AM 58.6 °F 31.6 °F 36% 30.13 in 10.0 mi WSW 6.9 mph - N/A   Clear
1:55 AM 58.8 °F 31.3 °F 35% 30.14 in 10.0 mi SW 4.6 mph - N/A   Clear
2:15 AM 60.4 °F 30.4 °F 32% 30.14 in 10.0 mi SW 4.6 mph - N/A   Clear
2:35 AM 58.3 °F 31.6 °F 36% 30.14 in 10.0 mi WSW 3.5 mph - N/A   Clear
2:55 AM 59.0 °F 31.1 °F 35% 30.14 in 10.0 mi Calm Calm - N/A   Clear
3:15 AM 56.8 °F 32.2 °F 39% 30.14 in 10.0 mi Calm Calm - N/A   Clear
3:35 AM 56.3 °F 32.5 °F 41% 30.14 in 10.0 mi Calm Calm - N/A   Clear
3:55 AM 53.1 °F 34.9 °F 50% 30.14 in 10.0 mi Calm Calm - N/A   Clear
4:15 AM 54.3 °F 33.1 °F 45% 30.14 in 10.0 mi Calm Calm - N/A   Clear
4:35 AM 55.4 °F 32.0 °F 41% 30.13 in 10.0 mi Calm Calm - N/A   Clear
4:55 AM 54.9 °F 32.2 °F 42% 30.14 in 10.0 mi Calm Calm - N/A   Clear
5:15 AM 53.1 °F 33.6 °F 48% 30.14 in 10.0 mi Calm Calm - N/A   Clear
5:35 AM 51.3 °F 34.7 °F 53% 30.14 in 10.0 mi East 4.6 mph - N/A   Clear
5:55 AM 50.2 °F 35.1 °F 56% 30.14 in 10.0 mi Calm Calm - N/A   Clear
6:15 AM 49.5 °F 36.7 °F 61% 30.15 in 10.0 mi Calm Calm - N/A   Clear
6:35 AM 49.3 °F 37.9 °F 65% 30.15 in 10.0 mi Calm Calm - N/A   Clear
6:55 AM 50.0 °F 37.4 °F 62% 30.15 in 10.0 mi Calm Calm - N/A   Clear
7:15 AM 49.5 °F 37.4 °F 63% 30.15 in 10.0 mi Calm Calm - N/A   Clear
7:35 AM 49.6 °F 37.4 °F 63% 30.16 in 10.0 mi SSE 3.5 mph - N/A   Clear
7:55 AM 49.8 °F 37.9 °F 64% 30.16 in 10.0 mi SSE 3.5 mph - N/A   Clear
8:15 AM 51.1 °F 38.8 °F 63% 30.16 in 10.0 mi SSE 3.5 mph - N/A   Clear
8:35 AM 52.7 °F 38.8 °F 59% 30.17 in 10.0 mi Calm Calm - N/A   Clear
8:55 AM 55.6 °F 39.7 °F 55% 30.17 in 10.0 mi Calm Calm - N/A   Clear
9:15 AM 57.9 °F 38.7 °F 49% 30.18 in 10.0 mi Calm Calm - N/A   Clear
9:35 AM 60.3 °F 41.7 °F 50% 30.18 in 10.0 mi Calm Calm - N/A   Clear
9:55 AM 62.2 °F 38.7 °F 42% 30.19 in 10.0 mi Calm Calm - N/A   Clear
10:15 AM 65.3 °F 38.7 °F 38% 30.19 in 10.0 mi NW 3.5 mph - N/A   Clear
10:35 AM 67.3 °F 41.4 °F 39% 30.19 in 10.0 mi NNW 4.6 mph - N/A   Clear
10:55 AM 69.6 °F 39.0 °F 33% 30.19 in 10.0 mi NNW 3.5 mph - N/A   Clear
11:15 AM 71.6 °F 40.1 °F 32% 30.19 in 10.0 mi NNW 4.6 mph - N/A   Clear
11:35 AM 73.4 °F 39.4 °F 29% 30.19 in 10.0 mi NNW 3.5 mph - N/A   Clear
11:55 AM - - N/A% - - North - - N/A   Unknown
12:15 PM 76.6 °F 37.6 °F 24% 30.18 in 10.0 mi North 3.5 mph - N/A   Clear
12:35 PM 77.9 °F 35.2 °F 21% 30.18 in 10.0 mi Calm Calm - N/A   Clear
12:55 PM 79.0 °F 35.2 °F 21% 30.17 in 10.0 mi NNE 6.9 mph - N/A   Clear
1:15 PM 79.2 °F 32.7 °F 19% 30.16 in 10.0 mi Calm Calm - N/A   Clear
1:35 PM 79.9 °F 33.4 °F 19% 30.15 in 10.0 mi Calm Calm - N/A   Clear
1:55 PM 80.8 °F 34.7 °F 19% 30.15 in 10.0 mi NNW 3.5 mph - N/A   Clear
2:15 PM 80.8 °F 35.1 °F 19% 30.14 in 10.0 mi ENE 4.6 mph - N/A   Clear
2:35 PM 81.3 °F 34.3 °F 18% 30.12 in 10.0 mi NW 5.8 mph - N/A   Clear
2:55 PM 81.3 °F 34.5 °F 19% 30.12 in 10.0 mi NNW 5.8 mph - N/A   Clear
3:15 PM 81.5 °F 34.9 °F 19% 30.11 in 10.0 mi Calm Calm - N/A   Clear
3:35 PM 81.7 °F 34.5 °F 18% 30.11 in 7.0 mi NW 8.1 mph - N/A   Clear
3:55 PM 81.3 °F 34.3 °F 18% 30.10 in 10.0 mi Calm Calm - N/A   Clear
4:15 PM 81.7 °F 36.7 °F 20% 30.10 in 10.0 mi NNE 4.6 mph - N/A   Clear
4:35 PM 81.5 °F 36.1 °F 20% 30.09 in 10.0 mi NNE 4.6 mph - N/A   Clear
4:55 PM 81.1 °F 36.0 °F 20% 30.09 in 10.0 mi NNE 5.8 mph - N/A   Clear
5:15 PM 80.6 °F 35.6 °F 20% 30.09 in 10.0 mi Calm Calm - N/A   Clear
5:35 PM 80.2 °F 36.7 °F 21% 30.09 in 10.0 mi East 5.8 mph - N/A   Clear
5:55 PM 79.7 °F 38.1 °F 23% 30.09 in 10.0 mi ENE 3.5 mph - N/A   Clear
6:15 PM 79.0 °F 39.6 °F 24% 30.08 in 10.0 mi East 3.5 mph - N/A   Clear
6:35 PM 77.9 °F 39.6 °F 25% 30.08 in 10.0 mi East 3.5 mph - N/A   Clear
6:55 PM 75.7 °F 39.2 °F 27% 30.08 in 10.0 mi East 3.5 mph - N/A   Clear
7:15 PM 74.3 °F 38.3 °F 27% 30.08 in 10.0 mi ESE 4.6 mph - N/A   Clear
7:35 PM 72.9 °F 41.0 °F 32% 30.09 in 10.0 mi ESE 3.5 mph - N/A   Clear
7:55 PM 70.7 °F 41.0 °F 34% 30.09 in 10.0 mi Calm Calm - N/A   Clear
8:15 PM 70.2 °F 40.5 °F 34% 30.09 in 10.0 mi SSE 3.5 mph - N/A   Clear
8:35 PM 69.8 °F 40.1 °F 34% 30.09 in 10.0 mi SE 3.5 mph - N/A   Clear
8:55 PM 68.4 °F 40.6 °F 36% 30.10 in 10.0 mi SE 4.6 mph - N/A   Clear
9:15 PM 64.8 °F 42.8 °F 45% 30.10 in 10.0 mi South 4.6 mph - N/A   Clear
9:35 PM 66.6 °F 41.7 °F 40% 30.11 in 10.0 mi South 4.6 mph - N/A   Clear
9:55 PM 66.6 °F 41.5 °F 40% 30.11 in 10.0 mi SSE 4.6 mph - N/A   Clear
10:15 PM 65.3 °F 41.5 °F 42% 30.11 in 10.0 mi SSE 3.5 mph - N/A   Clear
10:35 PM 63.0 °F 42.4 °F 47% 30.12 in 10.0 mi South 4.6 mph - N/A   Clear
10:55 PM 64.0 °F 41.4 °F 43% 30.12 in 10.0 mi SSE 4.6 mph - N/A   Clear
11:15 PM 62.6 °F 42.3 °F 47% 30.11 in 10.0 mi South 4.6 mph - N/A   Clear
11:35 PM 62.6 °F 42.1 °F 47% 30.11 in 10.0 mi South 4.6 mph - N/A   Clear
11:55 PM 61.7 °F 42.8 °F 50% 30.11 in 10.0 mi South 4.6 mph - N/A   Clear